DateTimeUTC,F1_A11,F1_S11,BsB_S11,BsG_S11,BsR_S11,BbsB_S11,BbsG_S11,BbsR_S11,BaB_A11,BaG_A11,BaR_A11,Tu_S11,T_S11,Uu_S11,U_S11,P_S11,T1_A11
2021-01-30T00:00:00Z,00000200,21000000,,,,,,,-000.12,0000.09,-000.17,16.5,23.8,,00.0,0639.4,30.9
2021-01-30T00:01:00Z,00000200,21000000,,,,,,,-000.37,-000.06,0000.58,16.5,23.8,,00.0,0639.4,30.9
2021-01-30T00:02:00Z,00000200,21000000,,,,,,,0000.58,-000.06,-000.26,16.5,23.8,,00.0,0639.4,30.9
2021-01-30T00:03:00Z,00000200,61000000,,,,,,,0000.29,0000.40,0000.29,16.5,23.8,,00.0,0639.4,30.9
2021-01-30T00:04:00Z,00000200,41000000,0000.16,0000.26,0000.12,-001.07,-000.33,0000.26,-000.10,0000.14,-000.02,16.8,23.6,,00.0,0640.2,30.9
2021-01-30T00:05:00Z,00000200,01000000,-000.11,-000.01,0000.13,-000.11,0000.05,-000.08,0000.14,0000.38,-000.06,16.9,23.6,,00.0,0640.3,30.9
2021-01-30T00:06:00Z,00000200,01000000,0000.29,-000.10,0000.10,0000.11,0000.15,-000.05,0000.19,0000.01,0000.44,17.0,23.6,,00.0,0640.3,30.9
2021-01-30T00:07:00Z,00000200,01000000,0000.14,0000.11,0000.23,-000.06,-000.19,-000.08,0000.09,0000.13,-000.08,17.0,23.6,,00.0,0640.3,30.9
2021-01-30T00:08:00Z,00000200,01000000,0000.15,0000.36,0000.01,-000.01,-000.14,0000.02,0000.07,0000.33,0000.47,17.0,23.6,,00.0,0640.2,30.9
2021-01-30T00:09:00Z,00000200,01000000,0000.07,0000.19,0000.15,-000.22,-000.01,-000.01,-000.18,-000.28,-000.27,17.0,23.7,,00.0,0640.3,31.0
2021-01-30T00:10:00Z,00000200,01000000,0000.47,0000.05,0000.34,0000.12,-000.32,0000.19,0000.31,-000.38,-000.38,17.0,23.6,,00.0,0640.3,30.9
2021-01-30T00:11:00Z,00000200,01000000,0000.52,0000.06,0000.35,-000.24,0000.10,-000.02,0000.12,0000.60,-000.09,16.9,23.6,,00.0,0640.2,30.9
2021-01-30T00:12:00Z,00000200,01000000,-000.38,0000.20,0000.00,0000.20,-000.01,0000.02,-000.33,-000.44,0000.25,16.8,23.5,,00.0,0640.2,30.9
2021-01-30T00:13:00Z,00000200,01000000,-000.12,-000.01,0000.16,0000.35,-000.18,0000.11,0000.24,0000.41,-000.13,16.7,23.5,,00.0,0640.2,30.9
2021-01-30T00:14:00Z,00000200,01000000,0000.24,0000.26,0000.19,-000.17,-000.14,0000.02,-000.16,-000.44,-000.05,16.6,23.5,,00.0,0640.2,30.9
2021-01-30T00:15:00Z,00000200,01000000,0000.44,0000.64,0000.12,0000.17,-000.15,-000.19,0000.09,0000.18,0000.03,16.5,23.4,,00.0,0640.2,30.9
2021-01-30T00:16:00Z,00000200,01000000,0000.16,-000.02,0000.23,0000.18,-000.01,-000.03,-000.17,-000.18,0000.09,16.4,23.4,,00.0,0640.2,30.9
2021-01-30T00:17:00Z,00000200,01000000,-000.45,0000.24,0000.13,0000.26,-000.15,0000.01,0000.21,0000.24,-000.14,16.4,23.3,,00.0,0640.2,30.8
2021-01-30T00:18:00Z,00000200,01000000,0000.33,-000.17,0000.25,-000.21,-000.24,0000.15,0000.72,0000.19,-000.04,16.4,23.3,,00.0,0640.2,30.8
2021-01-30T00:19:00Z,00000200,01000000,0000.33,0000.28,0000.21,-000.40,-000.03,0000.19,-000.46,0000.32,0000.67,16.4,23.3,,00.0,0640.2,30.9
2021-01-30T00:20:00Z,00000200,01000000,-000.56,0000.05,0000.46,0000.01,-000.05,0000.14,0000.40,0000.56,0000.15,16.5,23.3,,00.0,0640.2,30.9
2021-01-30T00:21:00Z,00000200,01000000,0000.06,0000.26,0000.25,0000.30,-000.11,-000.09,0000.10,-000.29,0000.29,16.5,23.3,,00.0,0640.2,30.9
2021-01-30T00:22:00Z,00000200,01000000,0000.03,0000.03,0000.18,-000.27,-000.12,0000.04,0000.06,0000.07,-000.32,16.6,23.3,,00.0,0640.2,30.9
2021-01-30T00:23:00Z,00000200,01000000,0000.07,0000.18,0000.24,0000.12,-000.19,-000.04,-000.01,-000.05,0000.18,16.6,23.4,,00.0,0640.2,30.9
2021-01-30T00:24:00Z,00000200,01000000,0000.04,-000.01,0000.18,-000.35,-000.05,0000.08,0000.29,0000.21,-000.15,16.7,23.4,,00.0,0640.2,30.9
2021-01-30T00:25:00Z,00000200,01000000,-000.01,-000.01,0000.19,-000.54,-000.06,-000.14,-000.43,-000.33,0000.13,16.7,23.4,,00.0,0640.2,30.9
2021-01-30T00:26:00Z,00000200,01000000,0000.08,0000.10,0000.33,-000.12,-000.06,0000.07,0000.04,-000.10,-000.46,16.7,23.4,,00.0,0640.2,30.9
2021-01-30T00:27:00Z,00000200,01000000,-000.69,-000.10,0000.46,0000.32,0000.05,0000.28,0000.18,0000.50,0000.45,16.7,23.4,,00.0,0640.2,30.9
2021-01-30T00:28:00Z,00000200,01000000,0000.46,0000.24,-000.02,0000.20,0000.02,-000.12,0000.15,-000.60,-000.21,16.6,23.3,,00.0,0640.2,30.9
2021-01-30T00:29:00Z,00000200,01000000,0000.62,-000.02,0000.00,0000.22,-000.03,0000.22,0000.04,0000.50,0000.15,16.5,23.3,,00.0,0640.2,30.9
2021-01-30T00:30:00Z,00000200,01000000,0000.13,0000.17,0000.14,0000.21,0000.03,-000.06,-000.11,-000.23,-000.01,16.4,23.3,,00.0,0640.2,30.9
2021-01-30T00:31:00Z,00000200,01000000,0000.44,0000.13,0000.14,0000.03,-000.11,-000.10,-000.09,-000.03,-000.02,16.3,23.2,,00.0,0640.2,30.9
2021-01-30T00:32:00Z,00000200,01000000,0000.46,0000.07,-000.04,0000.06,-000.17,0000.04,-000.07,-000.00,0000.01,16.3,23.2,,00.0,0640.2,30.8
2021-01-30T00:33:00Z,00000200,01000000,0000.00,0000.15,0000.32,-000.13,-000.21,0000.18,0000.47,0000.12,0000.33,16.3,23.1,,00.0,0640.2,30.8
2021-01-30T00:34:00Z,00000200,01000000,0000.13,-000.05,0000.06,-000.34,-000.17,-000.17,0000.04,0000.48,0000.16,16.3,23.1,,00.0,0640.1,30.9
2021-01-30T00:35:00Z,00000200,01000000,0000.43,0000.06,0000.21,-000.05,-000.06,-000.21,-000.22,-000.10,-000.04,16.4,23.2,,00.0,0640.1,30.9
2021-01-30T00:36:00Z,00000200,01000000,0000.13,0000.31,0000.20,-000.51,-000.07,0000.26,0000.58,0000.21,-000.23,16.4,23.2,,00.0,0640.2,30.9
2021-01-30T00:37:00Z,00000200,01000000,-000.08,-000.11,-000.04,-000.16,-000.05,-000.31,-000.23,0000.01,0000.52,16.4,23.2,,00.0,0640.2,30.9
2021-01-30T00:38:00Z,00000200,01000000,0000.02,0000.23,0000.32,0000.08,-000.24,0000.01,0000.06,0000.12,-000.26,16.5,23.2,,00.0,0640.1,30.9
2021-01-30T00:39:00Z,00000200,01000000,-000.01,-000.12,-000.02,-000.07,-000.17,-000.07,0000.35,-000.11,0000.27,16.6,23.3,,00.0,0640.1,30.9
2021-01-30T00:40:00Z,00000200,01000000,-000.01,0000.15,0000.22,0000.05,-000.05,0000.18,0000.15,0000.46,-000.12,16.6,23.3,,00.0,0640.1,30.9
2021-01-30T00:41:00Z,00000200,01000000,0000.63,-000.10,0000.52,0000.06,-000.20,0000.02,-000.19,-000.31,0000.14,16.7,23.3,,00.0,0640.2,30.9
2021-01-30T00:42:00Z,00000200,01000000,0000.47,0000.63,0000.39,0000.12,-000.17,-000.07,0000.26,0000.08,0000.18,16.7,23.3,,00.0,0640.2,30.9
2021-01-30T00:43:00Z,00000200,01000000,0000.60,-000.06,0000.02,-000.23,-000.01,0000.12,-000.12,0000.42,0000.18,16.7,23.3,,00.0,0640.2,30.9
2021-01-30T00:44:00Z,00000200,01000000,0000.41,-000.13,0000.12,-000.19,-000.09,0000.20,0000.38,0000.32,0000.01,16.8,23.4,,00.0,0640.2,30.9
2021-01-30T00:45:00Z,00000200,01000000,-000.39,-000.11,0000.31,-000.08,-000.47,0000.32,0000.06,0000.12,-000.12,16.8,23.4,,00.0,0640.2,30.9
2021-01-30T00:46:00Z,00000200,01000000,0000.21,0000.19,0000.40,0000.46,-000.13,0000.32,0000.12,-000.02,0000.28,16.9,23.4,,00.0,0640.2,30.9
2021-01-30T00:47:00Z,00000200,01000000,-000.15,-000.01,0000.37,-000.38,-000.11,0000.25,-000.11,-000.35,-000.06,16.9,23.4,,00.0,0640.2,30.9
2021-01-30T00:48:00Z,00000200,01000000,0000.48,0000.36,0000.15,-000.49,-000.30,-000.26,0000.24,0000.03,0000.03,17.0,23.5,,00.0,0640.2,30.9
2021-01-30T00:49:00Z,00000200,01000000,0000.59,0000.31,0000.26,-000.45,-000.29,-000.18,0000.13,0000.86,0000.25,17.0,23.5,,00.0,0640.3,30.9
2021-01-30T00:50:00Z,00000200,01000000,-000.04,-000.00,0000.13,0000.05,-000.24,0000.08,-000.11,-000.25,0000.19,17.0,23.5,,00.0,0640.3,30.9
2021-01-30T00:51:00Z,00000200,01000000,0000.20,0000.18,0000.24,-000.64,-000.35,-000.04,0000.16,-000.28,0000.11,17.0,23.5,,00.0,0640.3,30.9
2021-01-30T00:52:00Z,00000200,01000000,0000.28,-000.01,0000.29,0000.00,-000.11,-000.01,0000.27,0000.27,-000.19,17.1,23.5,,00.0,0640.3,31.0
2021-01-30T00:53:00Z,00000200,01000000,-000.09,0000.18,0000.29,0000.07,-000.22,0000.03,0000.03,-000.06,0000.14,17.1,23.5,,00.0,0640.3,31.0
2021-01-30T00:54:00Z,00000200,01000000,0000.24,0000.20,-000.11,-000.37,0000.06,-000.07,-000.06,0000.52,-000.12,17.1,23.6,,00.0,0640.4,31.0
2021-01-30T00:55:00Z,00000200,01000000,0000.01,0000.13,0000.05,0000.19,-000.12,0000.06,-000.01,-000.40,-000.22,17.1,23.6,,00.0,0640.4,31.0
2021-01-30T00:56:00Z,00000200,01000000,0000.38,-000.09,0000.43,-000.05,-000.09,0000.13,-000.01,0000.38,0000.53,17.2,23.6,,00.0,0640.4,31.0
2021-01-30T00:57:00Z,00000200,41000000,,,,,,,-000.21,-000.29,-000.19,17.2,23.7,,00.0,0640.3,31.0
2021-01-30T00:58:00Z,00000200,61000000,,,,,,,-000.01,-000.32,-000.46,16.9,23.8,,00.0,0639.5,31.0
2021-01-30T00:59:00Z,00000200,21000000,,,,,,,-000.40,-000.15,0000.29,16.8,23.9,,00.0,0639.5,30.9
